Location: B�retswil
(47.3376°N, 8.8534°E)
Time: 02:48:49
(UTC+00:00)

CZ-2C R/B - Pass Details

Date: 03 March 2021
Orbit: 784 x 871 km, 98.2° (Epoch: 12 April)

Event Time Altitude Azimuth Distance (km) Brightness Sun altitude
Rises 18:00:17 0° 19° (NNE) 3,433 5.7 -8.8°
Reaches altitude 10° 18:02:49 10° 26° (NNE) 2,480 4.9 -9.3°
Maximum altitude 18:08:02 42° 97° (E) 1,171 3.0 -10.1°
Drops below altitude 10° 18:13:05 10° 168° (SSE) 2,408 4.9 -11.0°
Sets 18:15:31 0° 175° (S) 3,322 5.7 -11.4°
